QPF
0.00 0.00 0.01 0.01 0.00 0.00 0.01 0.01 0.01 0.03 0.04 0.05 0.05 0.05 0.04 0.03 0.04 0.03 0.02 0.03 0.04 0.06 0.06 0.04 0.04 0.04 0.05 0.06 0.08 0.08 0.08 0.08 0.09 0.10 0.11 0.09 0.06 0.06 0.05 0.05 0.06 0.05 0.05
0.00 0.00 0.01 0.01 0.01 0.00 0.00 0.00 0.01 0.02 0.03 0.03 0.04 0.04 0.05 0.03 0.03 0.03 0.03 0.05 0.05 0.04 0.03 0.04 0.04 0.04 0.04 0.05 0.06 0.07 0.07 0.07 0.08 0.11 0.12 0.11 0.08 0.06 0.04 0.04 0.05 0.06 0.06
0.00 0.00 0.00 0.00 0.00 0.00 0.00 0.00 0.01 0.01 0.01 0.02 0.02 0.02 0.04 0.04 0.05 0.06 0.05 0.05 0.05 0.05 0.04 0.04 0.05 0.05 0.03 0.04 0.05 0.06 0.06 0.07 0.07 0.09 0.11 0.12 0.10 0.08 0.06 0.05 0.04 0.05 0.07
0.00 0.00 0.00 0.00 0.00 0.00 0.00 0.00 0.01 0.00 0.01 0.01 0.01 0.01 0.02 0.03 0.04 0.06 0.07 0.06 0.06 0.05 0.05 0.04 0.07 0.09 0.05 0.05 0.04 0.05 0.06 0.07 0.09 0.09 0.09 0.09 0.09 0.09 0.08 0.07 0.07 0.06 0.06
0.00 0.00 0.00 0.00 0.00 0.00 0.00 0.00 0.01 0.01 0.00 0.01 0.01 0.01 0.01 0.02 0.03 0.05 0.06 0.08 0.07 0.06 0.06 0.06 0.08 0.08 0.07 0.06 0.05 0.04 0.05 0.06 0.09 0.09 0.08 0.07 0.08 0.08 0.07 0.06 0.07 0.07 0.06
0.00 0.00 0.00 0.00 0.00 0.00 0.00 0.00 0.01 0.01 0.01 0.01 0.00 0.01 0.01 0.02 0.02 0.03 0.03 0.03 0.04 0.05 0.05 0.07 0.05 0.04 0.04 0.05 0.04 0.04 0.05 0.06 0.06 0.07 0.06 0.07 0.07 0.07 0.07 0.06 0.06 0.06 0.06
0.00 0.00 0.00 0.00 0.00 0.00 0.00 0.00 0.00 0.00 0.00 0.00 0.00 0.00 0.01 0.01 0.01 0.01 0.01 0.01 0.02 0.03 0.03 0.04 0.05 0.05 0.05 0.03 0.03 0.03 0.04 0.05 0.04 0.04 0.05 0.05 0.05 0.05 0.06 0.07 0.06 0.05 0.05
0.00 0.00 0.00 0.00 0.00 0.00 0.00 0.00 0.00 0.00 0.00 0.00 0.00 0.00 0.01 0.00 0.01 0.01 0.01 0.01 0.02 0.02 0.02 0.02 0.02 0.02 0.04 0.03 0.02 0.02 0.03 0.03 0.04 0.03 0.03 0.03 0.04 0.04 0.05 0.06 0.06 0.07 0.08
0.00 0.00 0.00 0.00 0.00 0.00 0.00 0.00 0.00 0.00 0.00 0.00 0.00 0.01 0.00 0.00 0.00 0.00 0.00 0.01 0.02 0.02 0.02 0.02 0.01 0.01 0.01 0.02 0.02 0.02 0.02 0.02 0.03 0.03 0.03 0.03 0.03 0.04 0.06 0.07 0.09 0.11 0.10
0.00 0.00 0.01 0.00 0.00 0.00 0.00 0.00 0.00 0.00 0.00 0.00 0.00 0.00 0.00 0.00 0.00 0.00 0.00 0.01 0.02 0.01 0.01 0.02 0.01 0.01 0.01 0.02 0.02 0.02 0.02 0.02 0.03 0.03 0.03 0.05 0.04 0.05 0.06 0.06 0.07 0.07 0.06
0.00 0.00 0.00 0.00 0.00 0.00 0.00 0.00 0.00 0.00 0.00 0.00 0.00 0.00 0.00 0.00 0.01 0.01 0.01 0.01 0.02 0.02 0.01 0.01 0.01 0.02 0.02 0.01 0.01 0.01 0.02 0.02 0.02 0.03 0.04 0.06 0.07 0.06 0.05 0.04 0.05 0.05 0.05
0.01 0.01 0.00 0.00 0.00 0.00 0.00 0.00 0.00 0.00 0.00 0.00 0.00 0.00 0.00 0.00 0.01 0.01 0.01 0.01 0.02 0.02 0.01 0.01 0.02 0.02 0.01 0.01 0.01 0.01 0.01 0.02 0.03 0.04 0.04 0.03 0.03 0.04 0.04 0.04 0.05 0.05 0.05
0.01 0.01 0.01 0.01 0.01 0.02 0.02 0.01 0.00 0.00 0.01 0.00 0.00 0.00 0.01 0.01 0.01 0.01 0.01 0.01 0.01 0.02 0.01 0.01 0.01 0.01 0.01 0.01 0.01 0.01 0.01 0.01 0.03 0.06 0.07 0.04 0.03 0.04 0.05 0.05 0.05 0.06 0.05
0.01 0.01 0.01 0.01 0.01 0.01 0.01 0.01 0.00 0.00 0.00 0.00 0.00 0.01 0.01 0.01 0.01 0.00 0.00 0.00 0.00 0.01 0.01 0.01 0.01 0.01 0.01 0.01 0.01 0.01 0.01 0.02 0.02 0.03 0.04 0.04 0.04 0.04 0.05 0.04 0.05 0.06 0.06
0.00 0.00 0.00 0.00 0.00 0.00 0.00 0.00 0.00 0.00 0.00 0.00 0.00 0.00 0.01 0.01 0.00 0.00 0.01 0.00 0.00 0.01 0.00 0.00 0.01 0.01 0.01 0.01 0.01 0.01 0.02 0.02 0.02 0.02 0.02 0.02 0.02 0.02 0.02 0.02 0.04 0.04 0.04
0.00 0.00 0.01 0.00 0.00 0.00 0.00 0.00 0.00 0.00 0.00 0.00 0.00 0.00 0.00 0.00 0.00 0.00 0.01 0.01 0.01 0.00 0.00 0.00 0.00 0.01 0.01 0.01 0.01 0.01 0.01 0.02 0.02 0.02 0.02 0.01 0.01 0.01 0.01 0.01 0.02 0.03 0.03
0.01 0.01 0.01 0.01 0.01 0.00 0.00 0.01 0.00 0.00 0.00 0.00 0.00 0.00 0.00 0.01 0.01 0.00 0.00 0.01 0.01 0.01 0.01 0.01 0.01 0.01 0.01 0.01 0.01 0.02 0.01 0.02 0.03 0.02 0.03 0.02 0.01 0.01 0.01 0.01 0.01 0.01 0.01
0.01 0.01 0.01 0.01 0.01 0.00 0.00 0.00 0.00 0.00 0.01 0.01 0.00 0.00 0.00 0.00 0.00 0.00 0.00 0.00 0.01 0.01 0.01 0.01 0.01 0.02 0.02 0.02 0.02 0.02 0.03 0.03 0.04 0.03 0.04 0.03 0.02 0.02 0.02 0.02 0.02 0.02 0.01
0.01 0.01 0.00 0.01 0.01 0.01 0.00 0.00 0.00 0.01 0.01 0.01 0.01 0.00 0.00 0.00 0.00 0.00 0.00 0.00 0.01 0.01 0.02 0.02 0.02 0.02 0.01 0.02 0.03 0.04 0.05 0.06 0.07 0.07 0.05 0.04 0.03 0.02 0.02 0.01 0.02 0.02 0.01
0.00 0.00 0.00 0.01 0.01 0.01 0.01 0.01 0.00 0.01 0.01 0.01 0.01 0.01 0.01 0.01 0.00 0.00 0.00 0.00 0.01 0.02 0.02 0.02 0.01 0.01 0.01 0.02 0.04 0.05 0.05 0.06 0.05 0.05 0.05 0.05 0.03 0.02 0.01 0.01 0.02 0.02 0.01
0.00 0.00 0.01 0.01 0.01 0.01 0.01 0.01 0.01 0.01 0.01 0.01 0.01 0.01 0.01 0.01 0.01 0.01 0.01 0.01 0.01 0.01 0.01 0.02 0.01 0.01 0.01 0.01 0.02 0.03 0.02 0.02 0.03 0.03 0.04 0.04 0.03 0.03 0.02 0.01 0.01 0.01 0.01
0.01 0.01 0.01 0.02 0.01 0.01 0.01 0.01 0.01 0.01 0.01 0.01 0.01 0.01 0.01 0.01 0.01 0.01 0.01 0.01 0.01 0.01 0.01 0.01 0.01 0.01 0.01 0.01 0.01 0.01 0.01 0.01 0.01 0.01 0.02 0.03 0.04 0.03 0.03 0.03 0.02 0.03 0.04
0.01 0.01 0.02 0.01 0.00 0.01 0.01 0.01 0.01 0.01 0.02 0.02 0.02 0.01 0.01 0.00 0.00 0.01 0.01 0.01 0.01 0.01 0.01 0.01 0.01 0.02 0.01 0.01 0.02 0.02 0.02 0.03 0.02 0.03 0.03 0.04 0.04 0.04 0.04 0.04 0.04 0.04 0.05
0.01 0.01 0.01 0.01 0.01 0.01 0.00 0.00 0.01 0.02 0.02 0.02 0.02 0.02 0.01 0.01 0.00 0.01 0.01 0.01 0.01 0.01 0.01 0.01 0.01 0.02 0.02 0.01 0.02 0.02 0.02 0.03 0.04 0.04 0.05 0.06 0.05 0.05 0.04 0.03 0.03 0.04 0.04
0.00 0.01 0.01 0.01 0.01 0.01 0.01 0.01 0.01 0.01 0.01 0.02 0.02 0.02 0.01 0.01 0.01 0.01 0.01 0.01 0.01 0.01 0.01 0.01 0.01 0.02 0.02 0.02 0.03 0.02 0.02 0.03 0.04 0.05 0.06 0.05 0.05 0.04 0.03 0.02 0.02 0.02 0.02
0.00 0.00 0.01 0.01 0.01 0.00 0.00 0.00 0.01 0.01 0.01 0.02 0.02 0.01 0.01 0.01 0.01 0.01 0.01 0.01 0.01 0.02 0.02 0.02 0.02 0.02 0.02 0.03 0.04 0.04 0.05 0.05 0.07 0.07 0.05 0.05 0.04 0.04 0.03 0.02 0.01 0.01 0.01
MSLP
1018.45 1018.50 1018.53 1018.51 1018.43 1018.30 1018.15 1017.98 1017.83 1017.72 1017.65 1017.64 1017.68 1017.76 1017.87 1018.00 1018.12 1018.22 1018.29 1018.30 1018.26 1018.16 1018.02 1017.84 1017.67 1017.52 1017.43 1017.42 1017.51 1017.70 1017.98 1018.31 1018.67 1019.01 1019.31 1019.56 1019.73 1019.85 1019.92 1019.96 1019.99 1020.01 1020.02
1018.51 1018.65 1018.75 1018.79 1018.76 1018.66 1018.51 1018.34 1018.18 1018.06 1017.99 1017.98 1018.03 1018.12 1018.22 1018.34 1018.43 1018.49 1018.50 1018.48 1018.41 1018.30 1018.16 1018.01 1017.87 1017.76 1017.69 1017.67 1017.73 1017.85 1018.04 1018.27 1018.53 1018.80 1019.06 1019.30 1019.51 1019.69 1019.87 1020.03 1020.18 1020.31 1020.41
1018.50 1018.70 1018.88 1018.99 1019.02 1018.96 1018.85 1018.71 1018.56 1018.46 1018.40 1018.40 1018.46 1018.54 1018.63 1018.71 1018.75 1018.76 1018.72 1018.64 1018.54 1018.42 1018.31 1018.20 1018.10 1018.03 1017.97 1017.95 1017.96 1018.01 1018.09 1018.20 1018.35 1018.52 1018.72 1018.94 1019.17 1019.43 1019.69 1019.97 1020.24 1020.50 1020.71
1018.38 1018.64 1018.87 1019.05 1019.14 1019.15 1019.09 1018.99 1018.88 1018.81 1018.79 1018.82 1018.89 1018.97 1019.05 1019.09 1019.09 1019.04 1018.95 1018.84 1018.72 1018.60 1018.51 1018.44 1018.39 1018.36 1018.33 1018.30 1018.27 1018.24 1018.21 1018.21 1018.24 1018.31 1018.44 1018.62 1018.87 1019.16 1019.50 1019.87 1020.25 1020.61 1020.93
1018.15 1018.44 1018.73 1018.96 1019.11 1019.17 1019.17 1019.12 1019.07 1019.05 1019.08 1019.14 1019.24 1019.34 1019.42 1019.45 1019.42 1019.34 1019.22 1019.08 1018.95 1018.85 1018.78 1018.76 1018.76 1018.76 1018.76 1018.72 1018.66 1018.57 1018.46 1018.35 1018.28 1018.26 1018.31 1018.45 1018.68 1018.98 1019.36 1019.78 1020.22 1020.66 1021.06
1017.84 1018.15 1018.46 1018.73 1018.92 1019.03 1019.08 1019.08 1019.09 1019.13 1019.20 1019.32 1019.46 1019.59 1019.69 1019.73 1019.71 1019.62 1019.49 1019.34 1019.22 1019.13 1019.10 1019.11 1019.15 1019.19 1019.21 1019.18 1019.10 1018.96 1018.79 1018.61 1018.46 1018.36 1018.35 1018.44 1018.64 1018.93 1019.31 1019.74 1020.20 1020.67 1021.10
1017.51 1017.81 1018.14 1018.42 1018.64 1018.78 1018.86 1018.91 1018.96 1019.04 1019.17 1019.34 1019.53 1019.70 1019.84 1019.91 1019.90 1019.83 1019.72 1019.59 1019.48 1019.41 1019.40 1019.43 1019.50 1019.57 1019.60 1019.58 1019.50 1019.34 1019.14 1018.92 1018.73 1018.58 1018.53 1018.57 1018.73 1018.99 1019.33 1019.73 1020.18 1020.63 1021.07
1017.20 1017.51 1017.83 1018.12 1018.34 1018.49 1018.59 1018.65 1018.73 1018.84 1019.01 1019.22 1019.45 1019.67 1019.85 1019.97 1020.00 1019.96 1019.87 1019.76 1019.67 1019.61 1019.61 1019.66 1019.74 1019.82 1019.87 1019.86 1019.78 1019.63 1019.43 1019.20 1018.99 1018.83 1018.75 1018.77 1018.88 1019.10 1019.39 1019.75 1020.15 1020.56 1020.99
1016.96 1017.26 1017.58 1017.86 1018.07 1018.22 1018.31 1018.38 1018.47 1018.59 1018.77 1019.01 1019.27 1019.53 1019.75 1019.91 1019.98 1019.98 1019.92 1019.83 1019.75 1019.70 1019.70 1019.75 1019.82 1019.90 1019.95 1019.95 1019.89 1019.76 1019.58 1019.38 1019.19 1019.04 1018.95 1018.95 1019.04 1019.21 1019.46 1019.76 1020.11 1020.48 1020.87
1016.76 1017.07 1017.38 1017.66 1017.87 1018.00 1018.08 1018.14 1018.22 1018.34 1018.52 1018.76 1019.04 1019.32 1019.57 1019.75 1019.86 1019.89 1019.86 1019.79 1019.72 1019.67 1019.65 1019.68 1019.74 1019.80 1019.85 1019.86 1019.82 1019.73 1019.59 1019.43 1019.27 1019.15 1019.08 1019.08 1019.16 1019.30 1019.51 1019.77 1020.07 1020.40 1020.77
1016.55 1016.88 1017.20 1017.47 1017.67 1017.80 1017.87 1017.92 1017.98 1018.09 1018.27 1018.50 1018.77 1019.06 1019.32 1019.53 1019.66 1019.71 1019.70 1019.65 1019.58 1019.52 1019.49 1019.50 1019.54 1019.59 1019.63 1019.65 1019.63 1019.57 1019.48 1019.37 1019.26 1019.18 1019.14 1019.16 1019.23 1019.36 1019.54 1019.77 1020.04 1020.35 1020.70
1016.24 1016.58 1016.91 1017.19 1017.39 1017.53 1017.60 1017.65 1017.72 1017.82 1017.99 1018.22 1018.49 1018.77 1019.03 1019.25 1019.39 1019.46 1019.46 1019.42 1019.36 1019.30 1019.26 1019.26 1019.28 1019.33 1019.37 1019.41 1019.41 1019.39 1019.35 1019.29 1019.23 1019.18 1019.17 1019.21 1019.28 1019.41 1019.58 1019.79 1020.05 1020.35 1020.70
1015.74 1016.09 1016.43 1016.72 1016.94 1017.09 1017.19 1017.27 1017.35 1017.47 1017.65 1017.88 1018.14 1018.42 1018.68 1018.90 1019.05 1019.13 1019.15 1019.13 1019.08 1019.03 1019.00 1019.00 1019.03 1019.08 1019.14 1019.20 1019.23 1019.25 1019.25 1019.23 1019.21 1019.21 1019.22 1019.27 1019.35 1019.48 1019.64 1019.85 1020.10 1020.40 1020.74
1015.01 1015.35 1015.69 1015.99 1016.24 1016.43 1016.57 1016.70 1016.83 1016.99 1017.19 1017.44 1017.71 1017.99 1018.25 1018.47 1018.63 1018.73 1018.77 1018.77 1018.75 1018.73 1018.72 1018.74 1018.80 1018.87 1018.96 1019.04 1019.12 1019.17 1019.21 1019.23 1019.24 1019.26 1019.29 1019.35 1019.44 1019.57 1019.73 1019.93 1020.18 1020.47 1020.80
1014.06 1014.38 1014.70 1015.01 1015.28 1015.52 1015.73 1015.93 1016.13 1016.35 1016.60 1016.88 1017.17 1017.46 1017.72 1017.94 1018.11 1018.23 1018.29 1018.32 1018.34 1018.35 1018.39 1018.45 1018.54 1018.65 1018.78 1018.90 1019.01 1019.11 1019.18 1019.23 1019.28 1019.32 1019.37 1019.43 1019.53 1019.65 1019.81 1020.01 1020.25 1020.52 1020.83
1013.01 1013.27 1013.57 1013.87 1014.17 1014.46 1014.73 1015.01 1015.29 1015.59 1015.90 1016.21 1016.53 1016.83 1017.10 1017.33 1017.50 1017.63 1017.71 1017.77 1017.82 1017.87 1017.95 1018.06 1018.19 1018.35 1018.51 1018.68 1018.83 1018.96 1019.07 1019.16 1019.23 1019.30 1019.37 1019.45 1019.55 1019.68 1019.84 1020.04 1020.26 1020.51 1020.79
1012.00 1012.19 1012.44 1012.72 1013.04 1013.36 1013.71 1014.06 1014.41 1014.78 1015.15 1015.51 1015.85 1016.16 1016.43 1016.65 1016.82 1016.94 1017.03 1017.10 1017.17 1017.26 1017.36 1017.50 1017.67 1017.86 1018.07 1018.27 1018.46 1018.63 1018.78 1018.91 1019.02 1019.12 1019.22 1019.33 1019.45 1019.60 1019.77 1019.96 1020.17 1020.41 1020.65
1011.21 1011.32 1011.51 1011.76 1012.07 1012.42 1012.81 1013.21 1013.63 1014.05 1014.45 1014.84 1015.19 1015.50 1015.76 1015.96 1016.10 1016.21 1016.28 1016.34 1016.41 1016.50 1016.61 1016.76 1016.94 1017.15 1017.37 1017.60 1017.82 1018.03 1018.22 1018.39 1018.55 1018.70 1018.84 1019.00 1019.16 1019.34 1019.54 1019.75 1019.96 1020.18 1020.40
1010.76 1010.80 1010.93 1011.14 1011.43 1011.78 1012.18 1012.61 1013.05 1013.49 1013.91 1014.30 1014.64 1014.92 1015.15 1015.31 1015.42 1015.48 1015.52 1015.54 1015.58 1015.63 1015.73 1015.86 1016.02 1016.22 1016.45 1016.68 1016.92 1017.16 1017.39 1017.61 1017.82 1018.03 1018.24 1018.46 1018.68 1018.92 1019.15 1019.39 1019.63 1019.85 1020.05
1010.72 1010.70 1010.77 1010.93 1011.19 1011.51 1011.89 1012.30 1012.73 1013.16 1013.56 1013.92 1014.23 1014.47 1014.64 1014.75 1014.80 1014.81 1014.79 1014.76 1014.74 1014.75 1014.79 1014.87 1015.00 1015.17 1015.37 1015.60 1015.85 1016.11 1016.37 1016.63 1016.90 1017.18 1017.46 1017.75 1018.04 1018.34 1018.63 1018.92 1019.18 1019.42 1019.63
1011.05 1010.98 1011.00 1011.11 1011.31 1011.59 1011.91 1012.28 1012.66 1013.04 1013.39 1013.70 1013.95 1014.13 1014.25 1014.30 1014.29 1014.23 1014.15 1014.05 1013.97 1013.91 1013.89 1013.92 1013.99 1014.12 1014.29 1014.50 1014.74 1015.01 1015.30 1015.61 1015.93 1016.26 1016.60 1016.96 1017.32 1017.67 1018.02 1018.35 1018.66 1018.93 1019.16
1011.62 1011.53 1011.51 1011.57 1011.71 1011.91 1012.16 1012.45 1012.76 1013.06 1013.33 1013.56 1013.75 1013.87 1013.92 1013.91 1013.84 1013.73 1013.59 1013.45 1013.30 1013.19 1013.11 1013.08 1013.11 1013.20 1013.34 1013.53 1013.76 1014.03 1014.33 1014.66 1015.02 1015.39 1015.78 1016.17 1016.58 1016.97 1017.36 1017.73 1018.06 1018.37 1018.63
1012.29 1012.18 1012.13 1012.14 1012.20 1012.32 1012.48 1012.67 1012.88 1013.08 1013.26 1013.42 1013.53 1013.58 1013.58 1013.52 1013.42 1013.27 1013.10 1012.91 1012.74 1012.59 1012.48 1012.42 1012.41 1012.47 1012.59 1012.77 1012.99 1013.26 1013.57 1013.91 1014.27 1014.66 1015.05 1015.46 1015.87 1016.28 1016.67 1017.05 1017.41 1017.73 1018.03
1012.90 1012.78 1012.70 1012.65 1012.64 1012.67 1012.72 1012.81 1012.90 1013.00 1013.08 1013.15 1013.19 1013.19 1013.15 1013.06 1012.93 1012.77 1012.59 1012.40 1012.22 1012.07 1011.95 1011.89 1011.88 1011.94 1012.06 1012.24 1012.46 1012.73 1013.03 1013.36 1013.71 1014.07 1014.44 1014.82 1015.20 1015.58 1015.96 1016.32 1016.67 1017.01 1017.32
1013.32 1013.20 1013.08 1012.98 1012.90 1012.83 1012.78 1012.75 1012.73 1012.72 1012.71 1012.70 1012.67 1012.62 1012.55 1012.44 1012.31 1012.16 1011.99 1011.82 1011.66 1011.54 1011.45 1011.41 1011.43 1011.52 1011.65 1011.84 1012.08 1012.34 1012.63 1012.94 1013.25 1013.57 1013.89 1014.21 1014.53 1014.86 1015.18 1015.51 1015.84 1016.17 1016.49
1013.52 1013.38 1013.23 1013.07 1012.91 1012.76 1012.60 1012.46 1012.34 1012.23 1012.13 1012.04 1011.95 1011.86 1011.76 1011.65 1011.52 1011.38 1011.24 1011.10 1010.98 1010.89 1010.85 1010.86 1010.92 1011.05 1011.22 1011.44 1011.68 1011.95 1012.22 1012.49 1012.76 1013.02 1013.27 1013.52 1013.77 1014.02 1014.29 1014.58 1014.88 1015.20 1015.53
Thickness
5804 5803 5800 5797 5793 5789 5785 5782 5779 5777 5775 5773 5772 5769 5768 5768 5767 5765 5762 5761 5759 5758 5757 5758 5756 5755 5755 5753 5753 5751 5750 5749 5750 5748 5745 5746 5747 5745 5744 5743 5742 5741 5739
5807 5804 5802 5800 5796 5792 5788 5785 5782 5781 5779 5776 5774 5771 5770 5770 5769 5766 5762 5761 5759 5758 5759 5756 5757 5755 5753 5751 5750 5749 5749 5749 5749 5745 5741 5739 5740 5741 5742 5740 5738 5738 5737
5812 5808 5805 5803 5801 5797 5793 5791 5787 5784 5781 5779 5777 5774 5770 5769 5768 5765 5763 5761 5760 5758 5757 5756 5756 5754 5754 5752 5749 5748 5746 5745 5746 5746 5741 5735 5732 5735 5737 5736 5735 5733 5732
5821 5817 5812 5808 5805 5803 5800 5795 5791 5787 5784 5781 5779 5775 5771 5769 5767 5766 5764 5762 5759 5758 5757 5756 5755 5753 5754 5751 5750 5749 5747 5744 5743 5744 5743 5740 5738 5731 5729 5732 5732 5731 5728
5829 5824 5820 5815 5812 5810 5805 5800 5794 5789 5786 5783 5780 5776 5774 5772 5771 5768 5764 5762 5761 5759 5758 5756 5754 5753 5753 5750 5748 5747 5746 5746 5743 5742 5741 5739 5737 5735 5730 5725 5725 5726 5726
5835 5831 5827 5822 5817 5814 5810 5804 5797 5791 5788 5785 5782 5778 5775 5772 5770 5767 5765 5764 5763 5761 5759 5757 5754 5753 5752 5749 5747 5746 5745 5744 5742 5741 5740 5737 5735 5733 5731 5726 5722 5721 5721
5840 5834 5829 5824 5819 5816 5812 5808 5801 5794 5791 5788 5784 5781 5777 5774 5770 5768 5766 5765 5764 5762 5758 5758 5754 5753 5751 5749 5747 5745 5743 5742 5740 5739 5738 5737 5736 5736 5732 5727 5723 5719 5718
5844 5839 5834 5829 5824 5820 5815 5810 5804 5798 5794 5791 5787 5784 5780 5778 5776 5771 5770 5767 5765 5763 5760 5757 5755 5753 5751 5749 5747 5746 5744 5741 5739 5738 5736 5736 5736 5735 5732 5727 5722 5717 5715
5846 5842 5839 5834 5829 5824 5819 5815 5808 5801 5797 5794 5789 5785 5782 5778 5776 5772 5770 5769 5765 5764 5760 5757 5755 5752 5750 5748 5746 5745 5742 5740 5739 5738 5736 5735 5735 5733 5731 5727 5723 5716 5711
5847 5844 5840 5836 5833 5828 5823 5818 5812 5805 5800 5796 5792 5789 5784 5779 5776 5773 5769 5767 5764 5762 5759 5757 5754 5752 5749 5747 5745 5744 5741 5739 5737 5735 5733 5732 5733 5730 5728 5725 5722 5719 5714
5848 5845 5841 5838 5834 5829 5824 5818 5813 5807 5802 5798 5794 5790 5786 5781 5777 5773 5770 5767 5764 5761 5758 5755 5753 5751 5748 5746 5744 5743 5741 5738 5736 5734 5732 5730 5728 5727 5725 5723 5720 5716 5712
5849 5846 5842 5838 5832 5828 5824 5819 5815 5810 5805 5800 5795 5791 5787 5782 5778 5774 5770 5767 5764 5761 5758 5755 5752 5750 5748 5745 5743 5741 5740 5737 5734 5733 5730 5728 5727 5723 5722 5719 5716 5713 5709
5845 5843 5840 5835 5831 5827 5823 5820 5816 5811 5807 5802 5797 5791 5787 5782 5778 5774 5771 5767 5764 5760 5758 5754 5751 5749 5747 5744 5742 5740 5738 5736 5733 5731 5728 5726 5723 5720 5719 5715 5714 5711 5708
5839 5838 5835 5832 5829 5826 5822 5818 5815 5812 5807 5802 5797 5791 5787 5783 5779 5775 5771 5767 5764 5760 5757 5754 5751 5749 5746 5744 5741 5738 5736 5733 5731 5729 5726 5724 5721 5718 5715 5713 5710 5708 5704
5834 5833 5831 5830 5827 5824 5820 5818 5814 5811 5806 5800 5795 5791 5788 5783 5778 5774 5770 5767 5763 5761 5757 5753 5750 5748 5746 5743 5740 5737 5735 5731 5729 5726 5724 5722 5718 5714 5712 5711 5708 5705 5702
5831 5831 5830 5827 5825 5823 5820 5817 5813 5809 5805 5799 5794 5791 5786 5782 5777 5773 5769 5766 5762 5759 5755 5752 5749 5746 5745 5739 5734 5732 5732 5729 5727 5724 5722 5719 5715 5710 5706 5704 5701 5699 5697
5829 5829 5828 5826 5824 5823 5821 5816 5813 5808 5802 5797 5793 5789 5784 5780 5776 5773 5768 5764 5761 5757 5753 5750 5747 5744 5739 5734 5730 5727 5727 5726 5724 5721 5719 5718 5716 5708 5706 5700 5696 5694 5691
5827 5827 5826 5826 5825 5824 5820 5816 5812 5806 5800 5795 5791 5787 5782 5778 5774 5770 5766 5762 5759 5755 5751 5748 5745 5741 5737 5731 5727 5724 5722 5723 5721 5718 5716 5713 5710 5707 5702 5699 5696 5693 5690
5827 5827 5827 5826 5823 5821 5817 5812 5808 5803 5797 5793 5789 5786 5781 5776 5771 5768 5764 5760 5756 5753 5749 5746 5743 5739 5735 5729 5725 5720 5721 5719 5717 5715 5712 5709 5705 5700 5695 5693 5691 5688 5686
5823 5823 5823 5821 5817 5815 5812 5806 5803 5798 5794 5791 5788 5784 5779 5774 5769 5765 5761 5758 5754 5750 5747 5744 5740 5737 5733 5727 5722 5717 5719 5717 5715 5712 5709 5703 5700 5694 5690 5689 5687 5683 5681
5816 5816 5815 5812 5810 5809 5805 5800 5797 5794 5792 5790 5785 5780 5775 5771 5767 5762 5758 5754 5751 5747 5743 5739 5737 5733 5730 5724 5719 5714 5715 5714 5711 5710 5707 5703 5694 5689 5684 5683 5682 5679 5676
5808 5808 5806 5804 5803 5802 5798 5793 5791 5791 5789 5785 5779 5774 5770 5768 5764 5758 5753 5750 5746 5741 5738 5735 5732 5732 5728 5723 5717 5711 5708 5707 5706 5704 5703 5699 5689 5683 5679 5676 5674 5672 5669
5799 5800 5798 5796 5795 5794 5792 5787 5785 5784 5781 5777 5772 5768 5764 5761 5758 5753 5748 5745 5741 5739 5737 5733 5731 5729 5727 5722 5715 5708 5704 5700 5698 5698 5694 5688 5681 5677 5674 5670 5667 5666 5667
5790 5791 5789 5787 5785 5786 5784 5781 5779 5777 5773 5769 5765 5762 5758 5754 5751 5748 5746 5743 5739 5736 5733 5730 5727 5726 5723 5720 5715 5709 5702 5695 5692 5691 5686 5679 5675 5672 5670 5667 5664 5663 5663
5783 5783 5781 5779 5778 5777 5775 5773 5772 5768 5764 5760 5758 5755 5752 5749 5744 5742 5740 5738 5735 5732 5727 5726 5723 5719 5716 5713 5708 5705 5702 5697 5692 5686 5682 5679 5675 5671 5669 5667 5664 5661 5659
5774 5773 5772 5771 5770 5769 5766 5764 5763 5760 5756 5753 5750 5749 5746 5742 5739 5737 5732 5728 5726 5722 5717 5713 5711 5711 5707 5702 5698 5695 5691 5686 5682 5678 5678 5676 5674 5671 5668 5665 5662 5659 5655